Change the Weather History Date:

Monday, July 29, 2013

  Actual Average Record
Temperature  
Mean Temperature 37 °F 41 °F  
Max Temperature 42 °F 47 °F 71 °F (1968)
Min Temperature 32 °F 35 °F 27 °F (1936)
Degree Days  
Heating Degree Days 28 24  
Month to date heating degree days 588 699  
Since 1 June heating degree days 1366 1579  
Since 1 July heating degree days 588 699  
Cooling Degree Days 0    
Month to date cooling degree days 0  
Year to date cooling degree days 0  
Since 1 June cooling degree days 0  
Moisture  
Dew Point 34 °F    
Average Humidity 0    
Maximum Humidity 0    
Minimum Humidity 0    
Precipitation  
Precipitation T in 0.04 in 0.84 in (1922)
Month to date precipitation 1.57 0.91  
Year to date precipitation 3.56 1.93  
Snow  
Snow 0.00 in 0.00 in 6.00 in (1922)
Month to date snowfall 0.0 0.2  
Since 1 June snowfall 0.3 0.9  
Since 1 July snowfall 0.0 0.2  
Snow Depth 0.00 in    
Sea Level Pressure  
Sea Level Pressure 29.97 in    
Wind  
Wind Speed 15 mph (West)    
Max Wind Speed 28 mph    
Max Gust Speed 35 mph    
Visibility 4 miles    
Events Fog , Rain    
T = Trace of Precipitation, MM = Missing Value Source: NWS Daily Summary

Daily Weather History Graph

Daily Weather History Graph

Search for Another Location

Airport or City:

Trip Planner

Search our weather history database for the weather conditions in past years. The results will help you decide how hot, cold, wet, or windy it might be!

Date:

Astronomy

Jul. 29, 2013 Rise Set
Actual Time 3:06 AM AKDT 2:01 AM AKDT
Civil Twilight Sun does not rise Sun does not rise
Nautical Twilight Sun does not rise Sun does not rise
Astronomical Twilight Sun does not rise Sun does not rise
Moon 10:53 PM AKDT (7/29) 6:03 PM AKDT (7/29)
Length of Visible Light 24h 00m
Length of Day
22h 55m
Waning Gibbous, 49% of the Moon is Illuminated
Jul 29
Waning Gibbous
Aug 6
New
Aug 14
First Quarter
Aug 20
Full
Aug 28
Last Quarter

Hourly Weather History & Observations

Time (AKDT) Temp. Windchill Dew Point Humidity Pressure Visibility Wind Dir Wind Speed Gust Speed Precip Events Conditions
12:07 AM 42.8 °F 33.5 °F 41.0 °F 93% 29.74 in 1.0 mi WSW 23.0 mph 31.1 mph 0.00 in Rain Light Rain
12:25 AM 42.8 °F 33.5 °F 41.0 °F 93% 29.74 in 2.5 mi WSW 23.0 mph 29.9 mph 0.00 in   Overcast
12:33 AM 42.8 °F 33.5 °F 41.0 °F 93% 29.74 in 1.2 mi WSW 23.0 mph 31.1 mph 0.00 in   Overcast
12:44 AM 42.8 °F 33.3 °F 41.0 °F 93% 29.75 in 3.0 mi WSW 24.2 mph 31.1 mph 0.00 in   Overcast
12:53 AM 42.1 °F 32.3 °F 41.0 °F 96% 29.75 in 4.0 mi WSW 24.2 mph 31.1 mph 0.00 in   Overcast
1:02 AM 42.8 °F 33.5 °F 41.0 °F 93% 29.75 in 2.0 mi WSW 23.0 mph 31.1 mph 0.00 in Rain Light Rain
1:22 AM 42.8 °F 33.5 °F 39.2 °F 87% 29.75 in 2.5 mi WSW 23.0 mph 31.1 mph 0.00 in   Overcast
1:37 AM 41.0 °F 31.1 °F 39.2 °F 93% 29.76 in 3.0 mi WSW 23.0 mph 28.8 mph 0.00 in   Overcast
1:53 AM 41.0 °F 30.7 °F 39.9 °F 96% 29.76 in 10.0 mi WSW 25.3 mph 34.5 mph 0.00 in   Overcast
2:53 AM 39.0 °F 28.5 °F 37.9 °F 96% 29.78 in 7.0 mi WSW 23.0 mph 33.4 mph N/A   Overcast
3:53 AM 37.0 °F 25.6 °F 35.1 °F 93% 29.80 in 5.0 mi West 24.2 mph 29.9 mph N/A   Overcast
4:53 AM 36.0 °F 24.2 °F 34.0 °F 93% 29.81 in 4.0 mi West 24.2 mph 28.8 mph N/A   Overcast
5:00 AM 35.6 °F 24.0 °F 33.8 °F 93% 29.81 in 1.8 mi West 23.0 mph 29.9 mph N/A   Overcast
5:10 AM 35.6 °F 24.2 °F 33.8 °F 93% 29.82 in 3.0 mi West 21.9 mph 29.9 mph 0.00 in Rain Light Rain
5:30 AM 35.6 °F 24.0 °F 33.8 °F 93% 29.82 in 2.5 mi West 23.0 mph 29.9 mph 0.00 in   Overcast
5:53 AM 35.1 °F 23.8 °F 34.0 °F 96% 29.83 in 1.8 mi West 20.7 mph 29.9 mph 0.00 in   Overcast
6:53 AM 35.1 °F 23.5 °F 33.1 °F 92% 29.86 in 1.8 mi West 21.9 mph 31.1 mph N/A   Overcast
7:53 AM 34.0 °F 21.8 °F 33.1 °F 96% 29.89 in 2.0 mi West 23.0 mph 29.9 mph N/A   Overcast
7:56 AM 33.8 °F 21.3 °F 33.8 °F 100% 29.88 in 1.0 mi West 24.2 mph 31.1 mph N/A   Overcast
8:25 AM 33.8 °F 21.6 °F 33.8 °F 100% 29.90 in 2.0 mi West 23.0 mph 29.9 mph 0.00 in   Light Drizzle
8:53 AM 34.0 °F 22.1 °F 33.1 °F 96% 29.92 in 2.0 mi West 21.9 mph 31.1 mph 0.00 in   Light Drizzle
9:00 AM 33.8 °F 21.3 °F 33.8 °F 100% 29.92 in 1.5 mi West 24.2 mph 28.8 mph 0.00 in   Light Drizzle
9:11 AM 33.8 °F 21.3 °F 33.8 °F 100% 29.93 in 3.0 mi West 24.2 mph - 0.00 in   Overcast
9:53 AM 34.0 °F 22.1 °F 32.0 °F 92% 29.95 in 5.0 mi WNW 21.9 mph - 0.00 in   Overcast
10:15 AM 33.8 °F 22.5 °F 32.0 °F 93% 29.96 in 2.0 mi West 19.6 mph - N/A   Overcast
10:49 AM 33.8 °F 22.2 °F 32.0 °F 93% 29.98 in 4.0 mi WNW 20.7 mph - N/A   Overcast
10:53 AM 33.1 °F 21.2 °F 32.0 °F 96% 29.99 in 4.0 mi WNW 20.7 mph - N/A   Overcast
11:21 AM 33.8 °F 21.9 °F 30.2 °F 87% 30.00 in 10.0 mi WNW 21.9 mph - N/A   Overcast
11:49 AM 33.8 °F 22.5 °F 32.0 °F 93% 30.02 in 5.0 mi WNW 19.6 mph - N/A   Overcast
11:53 AM 34.0 °F 23.4 °F 32.0 °F 92% 30.02 in 7.0 mi WNW 17.3 mph - N/A   Overcast
12:53 PM 34.0 °F 23.0 °F 32.0 °F 92% 30.05 in 8.0 mi WNW 18.4 mph - N/A   Overcast
1:53 PM 35.1 °F 24.5 °F 32.0 °F 89% 30.07 in 10.0 mi WNW 18.4 mph - 0.00 in   Overcast
2:53 PM 34.0 °F 24.6 °F 30.9 °F 89% 30.09 in 9.0 mi WNW 13.8 mph - N/A   Overcast
3:53 PM 35.1 °F 25.9 °F 32.0 °F 89% 30.12 in 9.0 mi WNW 13.8 mph - N/A   Overcast
4:53 PM 34.0 °F 26.0 °F 30.9 °F 89% 30.13 in 9.0 mi WNW 10.4 mph - N/A   Overcast
5:43 PM 33.8 °F 26.4 °F 32.0 °F 93% 30.13 in 1.0 mi West 9.2 mph - N/A   Overcast
5:50 PM 33.8 °F 26.4 °F 32.0 °F 93% 30.13 in 0.8 mi WNW 9.2 mph - N/A   Overcast
5:53 PM 33.1 °F 25.5 °F 32.0 °F 96% 30.13 in 0.8 mi WNW 9.2 mph - N/A   Overcast
6:05 PM 33.8 °F 27.0 °F 30.2 °F 87% 30.13 in 6.0 mi West 8.1 mph - N/A   Overcast
6:44 PM 33.8 °F 27.0 °F 32.0 °F 93% 30.14 in 1.8 mi West 8.1 mph - N/A   Overcast
6:53 PM 33.1 °F 24.9 °F 32.0 °F 96% 30.14 in 1.0 mi West 10.4 mph - N/A   Overcast
7:50 PM 32.0 °F 26.4 °F 30.2 °F 93% 30.14 in 0.8 mi West 5.8 mph - N/A   Overcast
7:53 PM 32.0 °F 27.5 °F 30.9 °F 96% 30.14 in 0.5 mi West 4.6 mph - N/A Fog Fog
7:59 PM 33.8 °F 28.6 °F 30.2 °F 87% 30.14 in 0.8 mi WSW 5.8 mph - N/A   Overcast
8:53 PM 32.0 °F 27.5 °F 30.9 °F 96% 30.14 in 0.5 mi SW 4.6 mph - N/A Fog Fog
9:01 PM 32.0 °F - 30.2 °F 93% 30.14 in 2.5 mi Calm Calm - N/A   Overcast
9:22 PM 32.0 °F - 30.2 °F 93% 30.14 in 6.0 mi Calm Calm - N/A   Overcast
9:39 PM 33.8 °F 30.8 °F 30.2 °F 87% 30.14 in 10.0 mi SSW 3.5 mph - N/A   Scattered Clouds
9:53 PM 33.1 °F 30.0 °F 30.9 °F 92% 30.14 in 10.0 mi SW 3.5 mph - N/A   Partly Cloudy
10:53 PM 37.0 °F 33.3 °F 33.1 °F 86% 30.14 in 10.0 mi SSE 4.6 mph - N/A   Scattered Clouds
11:53 PM 37.0 °F 34.5 °F 34.0 °F 89% 30.13 in 10.0 mi SSE 3.5 mph - N/A   Mostly Cloudy